NUSANTARA SATU

Last updated on Fri Oct 31 2025 00:02:49 GMT+0000 (Coordinated Universal Time)

1 44048U 19009A 25302.64270476 -.00000224 00000+0 00000+0 0 9994 2 44048 0.0314 138.5430 0003803 25.3557 251.7330 1.00270655 24457
UTC large
Height (km)
Speed (km/s)
/
Latitude / Longitude
Inclination (degrees)
Orbital Period (minutes)
Azimuth
Elevation
Range (km)
Doppler Factor

Next 0 passes for location: London (51.5072 / 0.1276)

Sorry there are no passes over London.